Location: Krakow
(50.0830°N, 19.9170°E)
Time: 11:13:37
(UTC+01:00)

Transit 2A - Pass Details

Date: 13 February 2023
Orbit: 591 x 964 km, 66.7° (Epoch: 21 March)

Event Time Altitude Azimuth Distance (km) Brightness Sun altitude
Rises 00:20:27 0° 316° (NW) 3,544 - -53.1°
Reaches altitude 10° 00:23:19 10° 304° (NW) 2,640 - -53.0°
Maximum altitude 00:28:18 26° 251° (WSW) 1,788 - -52.8°
Drops below altitude 10° 00:33:23 10° 198° (SSW) 2,695 - -52.6°
Sets 00:36:21 0° 186° (S) 3,632 - -52.5°
